Location: Unspecified
(0.0000°N, 0.0000°E)
Time: 07:12:22
(UTC+00:00)

Vanguard 2 Rocket - Pass Details

Date: 11 October 2022
Orbit: 555 x 3321 km, 32.9° (Epoch: 06 December)

Event Time Altitude Azimuth Distance (km) Brightness Sun altitude
Rises 16:27:04 0° 236° (SW) 5,734 12.1 19.7°
Reaches altitude 10° 16:30:17 10° 236° (SW) 5,025 12.0 18.9°
Maximum altitude 16:46:35 86° 324° (NW) 3,162 9.9 14.9°
Drops below altitude 10° 17:07:13 10° 52° (NE) 6,133 10.6 9.8°
Sets 17:11:39 0° 53° (NE) 6,990 10.9 8.7°
